Location: Newark
(34.9500°N, 139.9667°E)
Time: 01:30:36
(UTC+00:00)

Altair - Pass Details

Date: 13 December 2019
Orbit: 1502 x 1682 km, 47.2° (Epoch: 19 January)

Event Time Altitude Azimuth Distance (km) Brightness Sun altitude
Exits shadow 18:18:52 35° 170° (S) 2,255 8.3 -40.2°
Drops below altitude 10° 18:23:56 10° 151° (SSE) 3,670 9.7 -39.1°
Sets 18:27:04 0° 147° (SSE) 4,666 10.4 -38.5°
